Time,TemperatureF,DewpointF,PressureIn,WindDirection,WindDirectionDegrees,WindSpeedMPH,WindSpeedGustMPH,Humidity,HourlyPrecipIn,Conditions,Clouds,dailyrainin,SoftwareType,DateUTC
2013-01-30 00:02:00,30.9,27.8,29.41,NNW,338,6.5,6.5,88,0.00,,---,0.00,VWS V14.01,2013-01-30 06:02:00,
2013-01-30 00:07:00,30.7,27.6,29.44,NNW,338,7.8,7.8,88,0.00,,---,0.00,VWS V14.01,2013-01-30 06:07:00,
2013-01-30 00:12:00,30.6,27.7,29.44,NW,315,6.0,6.0,89,0.00,,---,0.00,VWS V14.01,2013-01-30 06:12:00,
2013-01-30 00:17:00,30.2,27.6,29.44,WNW,292,6.5,6.5,90,0.00,,---,0.00,VWS V14.01,2013-01-30 06:17:00,
2013-01-30 00:22:00,30.2,27.6,29.47,ESE,112,7.6,7.6,90,0.00,,---,0.00,VWS V14.01,2013-01-30 06:22:00,
2013-01-30 00:27:00,30.2,27.6,29.47,SE,135,4.0,4.0,90,0.00,,---,0.00,VWS V14.01,2013-01-30 06:27:00,
2013-01-30 00:32:00,30.2,27.6,29.47,East,90,4.9,7.2,90,0.00,,---,0.00,VWS V14.01,2013-01-30 06:32:00,
2013-01-30 00:37:00,30.2,27.6,29.47,NNE,22,8.1,8.1,90,0.00,,---,0.00,VWS V14.01,2013-01-30 06:37:00,
2013-01-30 00:42:00,30.0,27.5,29.47,NNE,22,7.4,7.4,90,0.00,,---,0.00,VWS V14.01,2013-01-30 06:42:00,
2013-01-30 00:47:00,29.7,27.4,29.47,NNE,22,10.5,11.2,91,0.00,,---,0.00,VWS V14.01,2013-01-30 06:47:00,
2013-01-30 00:52:00,29.5,27.2,29.47,East,90,8.1,12.3,91,0.00,,---,0.00,VWS V14.01,2013-01-30 06:52:00,
2013-01-30 00:57:00,29.3,27.0,29.47,NNE,22,4.0,5.4,91,0.00,,---,0.00,VWS V14.01,2013-01-30 06:57:00,
2013-01-30 01:02:00,29.1,26.8,29.47,North,0,10.5,10.5,91,0.00,,---,0.00,VWS V14.01,2013-01-30 07:02:00,
2013-01-30 01:07:00,28.9,26.6,29.47,NNW,338,6.0,6.0,91,0.00,,---,0.00,VWS V14.01,2013-01-30 07:07:00,
2013-01-30 01:12:00,28.8,26.5,29.47,WSW,248,12.3,12.3,91,0.00,,---,0.00,VWS V14.01,2013-01-30 07:12:00,
2013-01-30 01:17:00,28.6,26.6,29.47,NW,315,6.3,6.3,92,0.00,,---,0.00,VWS V14.01,2013-01-30 07:17:00,
2013-01-30 01:22:00,28.6,26.6,29.44,North,0,7.4,9.8,92,0.00,,---,0.00,VWS V14.01,2013-01-30 07:22:00,
2013-01-30 01:27:00,28.6,26.6,29.44,NW,315,11.2,11.2,92,0.00,,---,0.00,VWS V14.01,2013-01-30 07:27:00,
2013-01-30 01:32:00,28.2,26.2,29.44,NNW,338,4.0,4.9,92,0.00,,---,0.00,VWS V14.01,2013-01-30 07:32:00,
2013-01-30 01:37:00,27.9,26.1,29.47,NNE,22,10.7,10.7,93,0.00,,---,0.00,VWS V14.01,2013-01-30 07:37:00,
2013-01-30 01:42:00,27.5,25.8,29.47,WNW,292,6.3,6.3,93,0.00,,---,0.00,VWS V14.01,2013-01-30 07:42:00,
2013-01-30 01:47:00,27.1,25.4,29.47,NNE,22,5.8,12.3,93,0.00,,---,0.00,VWS V14.01,2013-01-30 07:47:00,
2013-01-30 01:52:00,27.0,25.2,29.47,NNW,338,8.5,8.5,93,0.00,,---,0.00,VWS V14.01,2013-01-30 07:52:00,
2013-01-30 01:57:00,27.0,25.2,29.47,NW,315,10.1,10.1,93,0.00,,---,0.00,VWS V14.01,2013-01-30 07:57:00,
2013-01-30 02:02:00,27.0,25.2,29.47,East,90,5.4,5.4,93,0.00,,---,0.00,VWS V14.01,2013-01-30 08:02:00,
2013-01-30 02:07:00,26.6,24.9,29.47,NNW,338,6.5,6.7,93,0.00,,---,0.00,VWS V14.01,2013-01-30 08:07:00,
2013-01-30 02:12:00,26.4,24.7,29.47,NNW,338,4.7,6.0,93,0.00,,---,0.00,VWS V14.01,2013-01-30 08:12:00,
2013-01-30 02:17:00,26.4,24.7,29.47,NE,45,6.7,9.6,93,0.00,,---,0.00,VWS V14.01,2013-01-30 08:17:00,
2013-01-30 02:23:00,26.4,24.7,29.47,NNW,338,6.3,6.3,93,0.00,,---,0.00,VWS V14.01,2013-01-30 08:23:00,
2013-01-30 02:27:00,26.2,24.5,29.47,NNW,338,5.8,5.8,93,0.00,,---,0.00,VWS V14.01,2013-01-30 08:27:00,
2013-01-30 02:33:00,26.2,24.5,29.47,NNW,338,8.7,8.7,93,0.00,,---,0.00,VWS V14.01,2013-01-30 08:33:00,
2013-01-30 02:38:00,26.1,24.3,29.47,WNW,292,10.5,10.5,93,0.00,,---,0.00,VWS V14.01,2013-01-30 08:38:00,
2013-01-30 02:43:00,26.1,24.3,29.47,NNW,338,4.0,4.0,93,0.00,,---,0.00,VWS V14.01,2013-01-30 08:43:00,
2013-01-30 02:48:00,26.1,24.3,29.47,NW,315,3.4,3.4,93,0.00,,---,0.00,VWS V14.01,2013-01-30 08:48:00,
2013-01-30 02:53:00,25.9,24.1,29.50,SW,225,4.0,5.6,93,0.00,,---,0.00,VWS V14.01,2013-01-30 08:53:00,
2013-01-30 02:58:00,25.9,24.1,29.50,WNW,292,4.3,4.3,93,0.00,,---,0.00,VWS V14.01,2013-01-30 08:58:00,
2013-01-30 03:03:00,25.9,24.1,29.50,WNW,292,9.2,9.2,93,0.00,,---,0.00,VWS V14.01,2013-01-30 09:03:00,
2013-01-30 03:08:00,25.7,24.0,29.50,WNW,292,3.4,9.8,93,0.00,,---,0.00,VWS V14.01,2013-01-30 09:08:00,
2013-01-30 03:13:00,25.5,23.8,29.50,WNW,292,3.4,5.8,93,0.00,,---,0.00,VWS V14.01,2013-01-30 09:13:00,
2013-01-30 03:18:00,25.3,23.6,29.50,SSW,202,5.6,6.0,93,0.00,,---,0.00,VWS V14.01,2013-01-30 09:18:00,
2013-01-30 03:23:00,25.2,23.4,29.50,NE,45,6.3,12.8,93,0.00,,---,0.00,VWS V14.01,2013-01-30 09:23:00,
2013-01-30 03:28:00,25.0,23.2,29.50,North,0,4.9,5.8,93,0.00,,---,0.00,VWS V14.01,2013-01-30 09:28:00,
2013-01-30 03:33:00,25.0,23.2,29.50,NW,315,4.3,6.3,93,0.00,,---,0.00,VWS V14.01,2013-01-30 09:33:00,
2013-01-30 03:38:00,25.0,23.2,29.50,East,90,5.4,5.4,93,0.00,,---,0.00,VWS V14.01,2013-01-30 09:38:00,
2013-01-30 03:43:00,25.0,23.2,29.50,SW,225,7.6,7.6,93,0.00,,---,0.00,VWS V14.01,2013-01-30 09:43:00,
2013-01-30 03:48:00,25.0,23.2,29.50,WNW,292,5.8,5.8,93,0.00,,---,0.00,VWS V14.01,2013-01-30 09:48:00,
2013-01-30 03:53:00,24.8,23.1,29.50,NW,315,5.4,7.2,93,0.00,,---,0.00,VWS V14.01,2013-01-30 09:53:00,
2013-01-30 03:58:00,24.8,23.1,29.50,NNW,338,8.5,8.5,93,0.00,,---,0.00,VWS V14.01,2013-01-30 09:58:00,
2013-01-30 04:03:00,24.8,23.1,29.50,NW,315,4.3,4.3,93,0.00,,---,0.00,VWS V14.01,2013-01-30 10:03:00,
2013-01-30 04:08:00,24.8,23.1,29.50,NNW,338,7.6,7.6,93,0.00,,---,0.00,VWS V14.01,2013-01-30 10:08:00,
2013-01-30 04:13:00,24.6,22.9,29.50,West,270,4.5,10.1,93,0.00,,---,0.00,VWS V14.01,2013-01-30 10:13:00,
2013-01-30 04:18:00,24.4,22.7,29.50,West,270,8.1,8.7,93,0.00,,---,0.00,VWS V14.01,2013-01-30 10:18:00,
2013-01-30 04:23:00,24.4,23.0,29.50,NNW,338,9.8,9.8,94,0.00,,---,0.00,VWS V14.01,2013-01-30 10:23:00,
2013-01-30 04:28:00,24.4,23.0,29.50,East,90,8.1,8.1,94,0.00,,---,0.00,VWS V14.01,2013-01-30 10:28:00,
2013-01-30 04:33:00,24.3,22.8,29.50,ENE,68,6.0,6.0,94,0.00,,---,0.00,VWS V14.01,2013-01-30 10:33:00,
2013-01-30 04:38:00,24.3,22.8,29.50,NE,45,9.6,10.5,94,0.00,,---,0.00,VWS V14.01,2013-01-30 10:38:00,
2013-01-30 04:43:00,24.1,22.4,29.50,NNW,338,8.5,8.5,93,0.00,,---,0.00,VWS V14.01,2013-01-30 10:43:00,
2013-01-30 04:48:00,23.9,22.2,29.50,NNW,338,5.6,6.0,93,0.00,,---,0.00,VWS V14.01,2013-01-30 10:48:00,
2013-01-30 04:53:00,23.9,22.2,29.50,NNW,338,5.6,9.6,93,0.00,,---,0.00,VWS V14.01,2013-01-30 10:53:00,
2013-01-30 04:58:00,23.9,22.2,29.50,East,90,8.7,8.7,93,0.00,,---,0.00,VWS V14.01,2013-01-30 10:58:00,
2013-01-30 05:03:00,23.9,22.2,29.50,East,90,10.3,10.3,93,0.00,,---,0.00,VWS V14.01,2013-01-30 11:03:00,
2013-01-30 05:08:00,23.9,22.2,29.50,NNE,22,10.1,10.7,93,0.00,,---,0.00,VWS V14.01,2013-01-30 11:08:00,
2013-01-30 05:13:00,23.7,22.0,29.50,ENE,68,5.6,9.6,93,0.00,,---,0.00,VWS V14.01,2013-01-30 11:13:00,
2013-01-30 05:18:00,23.9,22.2,29.50,NNE,22,8.7,8.7,93,0.00,,---,0.00,VWS V14.01,2013-01-30 11:18:00,
2013-01-30 05:23:00,23.9,22.2,29.50,WNW,292,6.3,6.3,93,0.00,,---,0.00,VWS V14.01,2013-01-30 11:23:00,
2013-01-30 05:28:00,23.9,22.2,29.50,NNW,338,12.3,12.3,93,0.00,,---,0.00,VWS V14.01,2013-01-30 11:28:00,
2013-01-30 05:33:00,23.7,22.0,29.50,WSW,248,8.1,8.1,93,0.00,,---,0.00,VWS V14.01,2013-01-30 11:33:00,
2013-01-30 05:38:00,23.7,22.0,29.50,WNW,292,6.3,6.3,93,0.00,,---,0.00,VWS V14.01,2013-01-30 11:38:00,
2013-01-30 05:43:00,23.7,22.0,29.50,WNW,292,3.6,7.6,93,0.00,,---,0.00,VWS V14.01,2013-01-30 11:43:00,
2013-01-30 05:48:00,23.5,21.8,29.50,NNE,22,5.4,5.4,93,0.00,,---,0.00,VWS V14.01,2013-01-30 11:48:00,
2013-01-30 05:53:00,23.5,21.8,29.53,West,270,9.4,9.4,93,0.00,,---,0.00,VWS V14.01,2013-01-30 11:53:00,
2013-01-30 05:58:00,23.4,21.6,29.53,NNW,338,10.3,10.3,93,0.00,,---,0.00,VWS V14.01,2013-01-30 11:58:00,
2013-01-30 06:03:00,23.2,21.5,29.53,North,0,8.1,8.1,93,0.00,,---,0.00,VWS V14.01,2013-01-30 12:03:00,
2013-01-30 06:08:00,23.2,21.5,29.53,NNW,338,5.6,5.6,93,0.00,,---,0.00,VWS V14.01,2013-01-30 12:08:00,
2013-01-30 06:13:00,23.2,21.5,29.53,North,0,4.0,6.5,93,0.00,,---,0.00,VWS V14.01,2013-01-30 12:13:00,
2013-01-30 06:18:00,23.2,21.5,29.53,SE,135,3.6,3.6,93,0.00,,---,0.00,VWS V14.01,2013-01-30 12:18:00,
2013-01-30 06:24:00,23.2,21.5,29.53,WNW,292,4.3,9.2,93,0.00,,---,0.00,VWS V14.01,2013-01-30 12:24:00,
2013-01-30 06:29:00,23.2,21.5,29.53,South,180,5.4,10.3,93,0.00,,---,0.00,VWS V14.01,2013-01-30 12:29:00,
2013-01-30 06:34:00,23.0,21.3,29.53,NNW,338,5.4,6.0,93,0.00,,---,0.00,VWS V14.01,2013-01-30 12:34:00,
2013-01-30 06:39:00,23.0,21.3,29.53,NNW,338,7.6,11.2,93,0.00,,---,0.00,VWS V14.01,2013-01-30 12:39:00,
2013-01-30 06:44:00,23.0,21.3,29.53,NNW,338,4.0,8.7,93,0.00,,---,0.00,VWS V14.01,2013-01-30 12:44:00,
2013-01-30 06:49:00,22.8,20.9,29.53,WNW,292,7.8,8.1,92,0.00,,---,0.00,VWS V14.01,2013-01-30 12:49:00,
2013-01-30 06:54:00,22.8,20.9,29.53,NNE,22,5.4,5.8,92,0.00,,---,0.00,VWS V14.01,2013-01-30 12:54:00,
2013-01-30 06:59:00,22.8,20.9,29.53,WNW,292,8.7,12.3,92,0.00,,---,0.00,VWS V14.01,2013-01-30 12:59:00,
2013-01-30 07:04:00,22.8,20.6,29.53,NNW,338,12.1,12.1,91,0.00,,---,0.00,VWS V14.01,2013-01-30 13:04:00,
2013-01-30 07:09:00,22.8,20.6,29.53,WNW,292,10.3,10.3,91,0.00,,---,0.00,VWS V14.01,2013-01-30 13:09:00,
2013-01-30 07:14:00,22.8,20.3,29.53,NNW,338,10.3,10.3,90,0.00,,---,0.00,VWS V14.01,2013-01-30 13:14:00,
2013-01-30 07:19:00,22.6,20.1,29.56,WNW,292,10.7,10.7,90,0.00,,---,0.00,VWS V14.01,2013-01-30 13:19:00,
2013-01-30 07:24:00,22.6,20.1,29.56,West,270,11.2,11.2,90,0.00,,---,0.00,VWS V14.01,2013-01-30 13:24:00,
2013-01-30 07:29:00,22.6,20.1,29.56,NNW,338,23.0,23.0,90,0.00,,---,0.00,VWS V14.01,2013-01-30 13:29:00,
2013-01-30 07:34:00,22.6,20.1,29.56,NW,315,11.0,11.0,90,0.00,,---,0.00,VWS V14.01,2013-01-30 13:34:00,
2013-01-30 07:39:00,22.6,20.1,29.56,NNW,338,12.3,12.3,90,0.00,,---,0.00,VWS V14.01,2013-01-30 13:39:00,
2013-01-30 07:44:00,22.6,20.1,29.56,NNW,338,8.5,8.5,90,0.00,,---,0.00,VWS V14.01,2013-01-30 13:44:00,
2013-01-30 07:49:00,22.5,20.0,29.56,NNW,338,6.3,6.3,90,0.00,,---,0.00,VWS V14.01,2013-01-30 13:49:00,
2013-01-30 07:54:00,22.5,20.0,29.56,NNW,338,5.4,12.1,90,0.00,,---,0.00,VWS V14.01,2013-01-30 13:54:00,
2013-01-30 07:59:00,22.5,20.0,29.56,NNW,338,5.6,5.8,90,0.00,,---,0.00,VWS V14.01,2013-01-30 13:59:00,
2013-01-30 08:04:00,22.5,20.0,29.56,WSW,248,4.0,8.1,90,0.00,,---,0.00,VWS V14.01,2013-01-30 14:04:00,
2013-01-30 08:09:00,22.5,19.7,29.56,NE,45,6.7,6.7,89,0.00,,---,0.00,VWS V14.01,2013-01-30 14:09:00,
2013-01-30 08:14:00,22.5,19.7,29.56,NNW,338,8.5,8.5,89,0.00,,---,0.00,VWS V14.01,2013-01-30 14:14:00,
2013-01-30 08:19:00,22.6,19.9,29.59,NNW,338,11.4,11.4,89,0.00,,---,0.00,VWS V14.01,2013-01-30 14:19:00,
2013-01-30 08:24:00,22.6,19.9,29.59,North,0,6.3,6.3,89,0.00,,---,0.00,VWS V14.01,2013-01-30 14:24:00,
2013-01-30 08:29:00,22.6,19.9,29.59,NNW,338,10.3,10.3,89,0.00,,---,0.00,VWS V14.01,2013-01-30 14:29:00,
2013-01-30 08:34:00,22.6,19.9,29.59,NNW,338,17.7,17.7,89,0.00,,---,0.00,VWS V14.01,2013-01-30 14:34:00,
2013-01-30 08:39:00,22.6,19.9,29.59,NNE,22,3.4,3.4,89,0.00,,---,0.00,VWS V14.01,2013-01-30 14:39:00,
2013-01-30 08:44:00,22.5,19.7,29.59,NNW,338,14.5,14.5,89,0.00,,---,0.00,VWS V14.01,2013-01-30 14:44:00,
2013-01-30 08:49:00,22.5,19.7,29.59,East,90,12.3,14.8,89,0.00,,---,0.00,VWS V14.01,2013-01-30 14:49:00,
2013-01-30 08:54:00,22.5,19.7,29.59,NNW,338,10.1,10.1,89,0.00,,---,0.00,VWS V14.01,2013-01-30 14:54:00,
2013-01-30 08:59:00,22.3,19.5,29.59,WNW,292,9.8,10.1,89,0.00,,---,0.00,VWS V14.01,2013-01-30 14:59:00,
2013-01-30 09:04:00,22.3,19.5,29.62,WNW,292,5.8,8.7,89,0.00,,---,0.00,VWS V14.01,2013-01-30 15:04:00,
2013-01-30 09:09:00,22.3,19.5,29.62,WSW,248,10.7,10.7,89,0.00,,---,0.00,VWS V14.01,2013-01-30 15:09:00,
2013-01-30 09:14:00,22.3,19.3,29.62,WNW,292,11.9,11.9,88,0.00,,---,0.00,VWS V14.01,2013-01-30 15:14:00,
2013-01-30 09:19:00,22.5,19.5,29.62,NNW,338,6.7,10.3,88,0.00,,---,0.00,VWS V14.01,2013-01-30 15:19:00,
2013-01-30 09:24:00,22.8,19.3,29.62,WNW,292,4.0,4.0,86,0.00,,---,0.00,VWS V14.01,2013-01-30 15:24:00,
2013-01-30 09:29:00,23.0,19.2,29.62,North,0,4.9,5.4,85,0.00,,---,0.00,VWS V14.01,2013-01-30 15:29:00,
2013-01-30 09:34:00,23.0,19.2,29.62,NNW,338,8.5,8.5,85,0.00,,---,0.00,VWS V14.01,2013-01-30 15:34:00,
2013-01-30 09:39:00,22.8,19.0,29.62,North,0,12.5,12.5,85,0.00,,---,0.00,VWS V14.01,2013-01-30 15:39:00,
2013-01-30 09:44:00,22.8,19.3,29.62,East,90,3.6,3.6,86,0.00,,---,0.00,VWS V14.01,2013-01-30 15:44:00,
2013-01-30 09:49:00,22.8,19.3,29.62,SE,135,7.6,13.6,86,0.00,,---,0.00,VWS V14.01,2013-01-30 15:49:00,
2013-01-30 09:54:00,22.8,19.3,29.62,NW,315,12.3,12.3,86,0.00,,---,0.00,VWS V14.01,2013-01-30 15:54:00,
2013-01-30 09:59:00,22.8,18.7,29.62,NW,315,6.3,6.3,84,0.00,,---,0.00,VWS V14.01,2013-01-30 15:59:00,
2013-01-30 10:04:00,22.8,18.7,29.62,NNW,338,6.0,6.0,84,0.00,,---,0.00,VWS V14.01,2013-01-30 16:04:00,
2013-01-30 10:09:00,23.0,18.6,29.62,East,90,5.6,5.6,83,0.00,,---,0.00,VWS V14.01,2013-01-30 16:09:00,
2013-01-30 10:14:00,23.2,18.5,29.62,NNW,338,2.7,4.7,82,0.00,,---,0.00,VWS V14.01,2013-01-30 16:14:00,
2013-01-30 10:19:00,23.2,18.5,29.62,ENE,68,13.0,13.0,82,0.00,,---,0.00,VWS V14.01,2013-01-30 16:19:00,
2013-01-30 10:24:00,23.4,18.7,29.62,NNW,338,6.0,9.2,82,0.00,,---,0.00,VWS V14.01,2013-01-30 16:24:00,
2013-01-30 10:29:00,23.4,18.4,29.62,East,90,5.4,5.4,81,0.00,,---,0.00,VWS V14.01,2013-01-30 16:29:00,
2013-01-30 10:34:00,23.5,18.6,29.62,NNE,22,8.7,10.1,81,0.00,,---,0.00,VWS V14.01,2013-01-30 16:34:00,
2013-01-30 10:39:00,23.7,18.8,29.62,WNW,292,8.5,8.7,81,0.00,,---,0.00,VWS V14.01,2013-01-30 16:39:00,
2013-01-30 10:45:00,24.1,19.1,29.62,SSE,158,8.1,8.1,81,0.00,,---,0.00,VWS V14.01,2013-01-30 16:45:00,
2013-01-30 10:50:00,24.4,19.5,29.62,NW,315,7.2,7.6,81,0.00,,---,0.00,VWS V14.01,2013-01-30 16:50:00,
2013-01-30 10:55:00,24.6,19.6,29.62,WNW,292,10.7,10.7,81,0.00,,---,0.00,VWS V14.01,2013-01-30 16:55:00,
2013-01-30 11:00:00,24.6,19.3,29.62,NNW,338,8.1,8.1,80,0.00,,---,0.00,VWS V14.01,2013-01-30 17:00:00,
2013-01-30 11:05:00,24.8,19.2,29.62,NW,315,7.8,11.0,79,0.00,,---,0.00,VWS V14.01,2013-01-30 17:05:00,
2013-01-30 11:10:00,24.8,19.5,29.62,NW,315,11.0,11.0,80,0.00,,---,0.00,VWS V14.01,2013-01-30 17:10:00,
2013-01-30 11:15:00,24.8,19.5,29.62,WSW,248,6.0,8.7,80,0.00,,---,0.00,VWS V14.01,2013-01-30 17:15:00,
2013-01-30 11:20:00,24.8,19.2,29.62,NNW,338,6.0,6.0,79,0.00,,---,0.00,VWS V14.01,2013-01-30 17:20:00,
2013-01-30 11:25:00,25.0,19.1,29.62,NNW,338,14.1,14.1,78,0.00,,---,0.00,VWS V14.01,2013-01-30 17:25:00,
2013-01-30 11:30:00,25.5,19.0,29.62,WSW,248,5.6,5.6,76,0.00,,---,0.00,VWS V14.01,2013-01-30 17:30:00,
2013-01-30 11:35:00,26.2,20.0,29.62,WNW,292,6.0,6.0,77,0.00,,---,0.00,VWS V14.01,2013-01-30 17:35:00,
2013-01-30 11:40:00,26.2,19.7,29.62,NNW,338,5.6,5.6,76,0.00,,---,0.00,VWS V14.01,2013-01-30 17:40:00,
2013-01-30 11:45:00,26.1,19.5,29.62,NW,315,9.6,9.6,76,0.00,,---,0.00,VWS V14.01,2013-01-30 17:45:00,
2013-01-30 11:50:00,26.1,18.9,29.62,SW,225,3.8,3.8,74,0.00,,---,0.00,VWS V14.01,2013-01-30 17:50:00,
2013-01-30 11:55:00,26.4,19.3,29.62,WNW,292,10.5,10.5,74,0.00,,---,0.00,VWS V14.01,2013-01-30 17:55:00,
2013-01-30 12:00:00,26.8,19.3,29.62,NNW,338,10.3,10.3,73,0.00,,---,0.00,VWS V14.01,2013-01-30 18:00:00,
2013-01-30 12:05:00,27.1,19.0,29.62,WNW,292,10.7,10.7,71,0.00,,---,0.00,VWS V14.01,2013-01-30 18:05:00,
2013-01-30 12:10:00,27.1,19.0,29.62,North,0,4.5,4.5,71,0.00,,---,0.00,VWS V14.01,2013-01-30 18:10:00,
2013-01-30 12:15:00,27.7,19.2,29.62,WNW,292,5.4,6.9,70,0.00,,---,0.00,VWS V14.01,2013-01-30 18:15:00,
2013-01-30 12:20:00,28.0,18.9,29.62,NNW,338,12.3,12.3,68,0.00,,---,0.00,VWS V14.01,2013-01-30 18:20:00,
2013-01-30 12:25:00,28.0,19.2,29.62,SW,225,8.1,8.1,69,0.00,,---,0.00,VWS V14.01,2013-01-30 18:25:00,
2013-01-30 12:30:00,27.9,18.7,29.62,NNE,22,3.1,7.8,68,0.00,,---,0.00,VWS V14.01,2013-01-30 18:30:00,
2013-01-30 12:35:00,28.0,19.2,29.62,NW,315,10.7,10.7,69,0.00,,---,0.00,VWS V14.01,2013-01-30 18:35:00,
2013-01-30 12:40:00,27.3,17.8,29.62,NW,315,9.2,9.2,67,0.00,,---,0.00,VWS V14.01,2013-01-30 18:40:00,
2013-01-30 12:45:00,27.1,18.0,29.62,NE,45,6.5,6.5,68,0.00,,---,0.00,VWS V14.01,2013-01-30 18:45:00,
2013-01-30 12:50:00,26.8,17.3,29.62,WNW,292,5.8,6.0,67,0.00,,---,0.00,VWS V14.01,2013-01-30 18:50:00,
2013-01-30 12:55:00,26.6,17.1,29.62,SE,135,5.6,5.6,67,0.00,,---,0.00,VWS V14.01,2013-01-30 18:55:00,
2013-01-30 13:00:00,26.8,17.3,29.62,ENE,68,3.4,10.1,67,0.00,,---,0.00,VWS V14.01,2013-01-30 19:00:00,
2013-01-30 13:05:00,27.1,17.6,29.62,NW,315,9.4,9.4,67,0.00,,---,0.00,VWS V14.01,2013-01-30 19:05:00,
2013-01-30 13:10:00,27.9,18.3,29.62,NW,315,11.4,16.8,67,0.00,,---,0.00,VWS V14.01,2013-01-30 19:10:00,
2013-01-30 13:15:00,27.5,17.3,29.62,ENE,68,5.6,6.3,65,0.00,,---,0.00,VWS V14.01,2013-01-30 19:15:00,
2013-01-30 13:20:00,27.0,16.8,29.62,NNW,338,11.0,11.0,65,0.00,,---,0.00,VWS V14.01,2013-01-30 19:20:00,
2013-01-30 13:25:00,26.8,16.6,29.62,NNW,338,6.3,6.3,65,0.00,,---,0.00,VWS V14.01,2013-01-30 19:25:00,
2013-01-30 13:30:00,26.6,16.4,29.62,NNW,338,12.5,12.5,65,0.00,,---,0.00,VWS V14.01,2013-01-30 19:30:00,
2013-01-30 13:35:00,26.6,16.4,29.62,NW,315,10.1,10.1,65,0.00,,---,0.00,VWS V14.01,2013-01-30 19:35:00,
2013-01-30 13:40:00,26.8,16.2,29.62,NW,315,6.3,6.3,64,0.00,,---,0.00,VWS V14.01,2013-01-30 19:40:00,
2013-01-30 13:45:00,26.8,16.6,29.62,NNW,338,9.8,9.8,65,0.00,,---,0.00,VWS V14.01,2013-01-30 19:45:00,
2013-01-30 13:50:00,26.6,16.8,29.62,ENE,68,5.4,6.7,66,0.00,,---,0.00,VWS V14.01,2013-01-30 19:50:00,
2013-01-30 13:55:00,26.4,16.6,29.62,NNW,338,5.4,5.4,66,0.00,,---,0.00,VWS V14.01,2013-01-30 19:55:00,
2013-01-30 14:01:00,26.4,15.9,29.62,NE,45,8.5,10.7,64,0.00,,---,0.00,VWS V14.01,2013-01-30 20:01:00,
2013-01-30 14:06:00,26.2,15.7,29.62,NNW,338,5.6,9.8,64,0.00,,---,0.00,VWS V14.01,2013-01-30 20:06:00,
2013-01-30 14:11:00,26.6,16.4,29.62,NNW,338,3.6,5.8,65,0.00,,---,0.00,VWS V14.01,2013-01-30 20:11:00,
2013-01-30 14:16:00,26.6,16.1,29.62,WNW,292,7.6,9.8,64,0.00,,---,0.00,VWS V14.01,2013-01-30 20:16:00,
2013-01-30 14:21:00,26.8,16.2,29.62,WNW,292,8.5,8.5,64,0.00,,---,0.00,VWS V14.01,2013-01-30 20:21:00,
2013-01-30 14:26:00,27.7,16.7,29.62,NW,315,11.4,11.4,63,0.00,,---,0.00,VWS V14.01,2013-01-30 20:26:00,
2013-01-30 14:31:00,27.3,15.7,29.62,WSW,248,5.4,10.3,61,0.00,,---,0.00,VWS V14.01,2013-01-30 20:31:00,
2013-01-30 14:36:00,28.6,17.2,29.62,WNW,292,7.4,7.4,62,0.00,,---,0.00,VWS V14.01,2013-01-30 20:36:00,
2013-01-30 14:41:00,28.6,16.9,29.62,NW,315,4.0,7.6,61,0.00,,---,0.00,VWS V14.01,2013-01-30 20:41:00,
2013-01-30 14:46:00,29.1,17.4,29.62,NW,315,8.1,9.8,61,0.00,,---,0.00,VWS V14.01,2013-01-30 20:46:00,
2013-01-30 14:51:00,29.8,17.7,29.62,NNE,22,6.3,8.5,60,0.00,,---,0.00,VWS V14.01,2013-01-30 20:51:00,
2013-01-30 14:56:00,29.5,16.5,29.62,NW,315,7.6,11.9,58,0.00,,---,0.00,VWS V14.01,2013-01-30 20:56:00,
2013-01-30 15:01:00,28.9,15.6,29.62,WNW,292,6.3,12.3,57,0.00,,---,0.00,VWS V14.01,2013-01-30 21:01:00,
2013-01-30 15:06:00,28.6,15.7,29.62,NNW,338,7.6,7.6,58,0.00,,---,0.00,VWS V14.01,2013-01-30 21:06:00,
2013-01-30 15:11:00,28.0,15.6,29.62,WNW,292,10.3,10.3,59,0.00,,---,0.00,VWS V14.01,2013-01-30 21:11:00,
2013-01-30 15:16:00,27.9,15.0,29.62,WNW,292,6.0,8.5,58,0.00,,---,0.00,VWS V14.01,2013-01-30 21:16:00,
2013-01-30 15:21:00,27.5,15.1,29.62,NW,315,11.0,11.0,59,0.00,,---,0.00,VWS V14.01,2013-01-30 21:21:00,
2013-01-30 15:26:00,27.5,15.1,29.62,NW,315,7.4,7.4,59,0.00,,---,0.00,VWS V14.01,2013-01-30 21:26:00,
2013-01-30 15:31:00,27.5,15.8,29.62,NNW,338,5.4,5.8,61,0.00,,---,0.00,VWS V14.01,2013-01-30 21:31:00,
2013-01-30 15:36:00,27.3,15.3,29.62,WSW,248,10.1,10.1,60,0.00,,---,0.00,VWS V14.01,2013-01-30 21:36:00,
2013-01-30 15:41:00,26.2,13.5,29.62,NNW,338,7.4,7.4,58,0.00,,---,0.00,VWS V14.01,2013-01-30 21:41:00,
2013-01-30 15:46:00,25.9,13.5,29.62,NW,315,4.0,4.0,59,0.00,,---,0.00,VWS V14.01,2013-01-30 21:46:00,
2013-01-30 15:51:00,25.5,13.6,29.62,WNW,292,5.4,5.8,60,0.00,,---,0.00,VWS V14.01,2013-01-30 21:51:00,
2013-01-30 15:56:00,25.3,13.4,29.62,NNW,338,4.3,6.9,60,0.00,,---,0.00,VWS V14.01,2013-01-30 21:56:00,
2013-01-30 16:01:00,25.2,13.2,29.62,NNW,338,4.7,4.7,60,0.00,,---,0.00,VWS V14.01,2013-01-30 22:01:00,
2013-01-30 16:06:00,25.0,13.1,29.62,NW,315,4.0,4.0,60,0.00,,---,0.00,VWS V14.01,2013-01-30 22:06:00,
2013-01-30 16:11:00,25.0,13.1,29.62,WNW,292,6.5,6.5,60,0.00,,---,0.00,VWS V14.01,2013-01-30 22:11:00,
2013-01-30 16:16:00,25.0,13.1,29.62,WNW,292,6.0,6.0,60,0.00,,---,0.00,VWS V14.01,2013-01-30 22:16:00,
2013-01-30 16:21:00,24.8,13.3,29.65,NW,315,8.1,8.1,61,0.00,,---,0.00,VWS V14.01,2013-01-30 22:21:00,
2013-01-30 16:26:00,24.4,12.9,29.65,WNW,292,8.5,8.5,61,0.00,,---,0.00,VWS V14.01,2013-01-30 22:26:00,
2013-01-30 16:31:00,24.4,12.9,29.65,WNW,292,6.3,8.7,61,0.00,,---,0.00,VWS V14.01,2013-01-30 22:31:00,
2013-01-30 16:36:00,24.3,12.8,29.62,WNW,292,8.5,8.5,61,0.00,,---,0.00,VWS V14.01,2013-01-30 22:36:00,
2013-01-30 16:41:00,24.1,12.6,29.62,WNW,292,7.2,7.2,61,0.00,,---,0.00,VWS V14.01,2013-01-30 22:41:00,
2013-01-30 16:46:00,23.9,12.8,29.62,WNW,292,7.4,7.4,62,0.00,,---,0.00,VWS V14.01,2013-01-30 22:46:00,
2013-01-30 16:51:00,24.1,13.0,29.65,WNW,292,4.9,6.3,62,0.00,,---,0.00,VWS V14.01,2013-01-30 22:51:00,
2013-01-30 16:56:00,24.1,13.0,29.65,NNW,338,8.5,8.5,62,0.00,,---,0.00,VWS V14.01,2013-01-30 22:56:00,
2013-01-30 17:01:00,23.9,12.8,29.65,WNW,292,3.6,6.5,62,0.00,,---,0.00,VWS V14.01,2013-01-30 23:01:00,
2013-01-30 17:06:00,23.9,13.1,29.65,NW,315,3.4,3.4,63,0.00,,---,0.00,VWS V14.01,2013-01-30 23:06:00,
2013-01-30 17:11:00,23.9,13.1,29.65,NW,315,4.9,4.9,63,0.00,,---,0.00,VWS V14.01,2013-01-30 23:11:00,
2013-01-30 17:16:00,23.9,13.1,29.65,WNW,292,2.5,2.7,63,0.00,,---,0.00,VWS V14.01,2013-01-30 23:16:00,
2013-01-30 17:21:00,23.9,13.5,29.65,NNW,338,10.7,10.7,64,0.00,,---,0.00,VWS V14.01,2013-01-30 23:21:00,
2013-01-30 17:26:00,23.7,13.3,29.65,WNW,292,5.8,5.8,64,0.00,,---,0.00,VWS V14.01,2013-01-30 23:26:00,
2013-01-30 17:31:00,23.7,13.0,29.65,WNW,292,4.9,4.9,63,0.00,,---,0.00,VWS V14.01,2013-01-30 23:31:00,
2013-01-30 17:36:00,23.7,13.0,29.65,WNW,292,5.6,5.6,63,0.00,,---,0.00,VWS V14.01,2013-01-30 23:36:00,
2013-01-30 17:41:00,23.7,13.0,29.65,WNW,292,3.4,4.9,63,0.00,,---,0.00,VWS V14.01,2013-01-30 23:41:00,
2013-01-30 17:46:00,23.5,12.8,29.65,NW,315,1.3,2.2,63,0.00,,---,0.00,VWS V14.01,2013-01-30 23:46:00,
2013-01-30 17:51:00,23.5,13.2,29.65,WSW,248,3.1,3.1,64,0.00,,---,0.00,VWS V14.01,2013-01-30 23:51:00,
2013-01-30 17:56:00,23.4,13.0,29.65,NW,315,2.7,3.4,64,0.00,,---,0.00,VWS V14.01,2013-01-30 23:56:00,
2013-01-30 18:01:00,23.4,13.0,29.65,WNW,292,2.9,2.9,64,0.00,,---,0.00,VWS V14.01,2013-01-31 00:01:00,
2013-01-30 18:06:00,23.4,13.0,29.65,NW,315,6.5,6.5,64,0.00,,---,0.00,VWS V14.01,2013-01-31 00:06:00,
2013-01-30 18:11:00,23.4,13.0,29.65,NW,315,3.1,3.1,64,0.00,,---,0.00,VWS V14.01,2013-01-31 00:11:00,
2013-01-30 18:16:00,23.2,13.2,29.65,NW,315,3.8,5.4,65,0.00,,---,0.00,VWS V14.01,2013-01-31 00:16:00,
2013-01-30 18:21:00,23.2,13.2,29.65,WNW,292,2.7,3.6,65,0.00,,---,0.00,VWS V14.01,2013-01-31 00:21:00,
2013-01-30 18:26:00,23.0,13.0,29.65,WNW,292,2.9,5.6,65,0.00,,---,0.00,VWS V14.01,2013-01-31 00:26:00,
2013-01-30 18:31:00,22.8,13.2,29.65,WNW,292,3.4,3.6,66,0.00,,---,0.00,VWS V14.01,2013-01-31 00:31:00,
2013-01-30 18:36:00,22.8,13.2,29.68,WNW,292,3.6,3.6,66,0.00,,---,0.00,VWS V14.01,2013-01-31 00:36:00,
2013-01-30 18:41:00,22.6,13.0,29.68,WNW,292,3.1,4.3,66,0.00,,---,0.00,VWS V14.01,2013-01-31 00:41:00,
2013-01-30 18:46:00,22.5,12.8,29.68,WNW,292,3.6,3.6,66,0.00,,---,0.00,VWS V14.01,2013-01-31 00:46:00,
2013-01-30 18:51:00,22.3,12.7,29.68,WNW,292,6.5,6.5,66,0.00,,---,0.00,VWS V14.01,2013-01-31 00:51:00,
2013-01-30 18:56:00,22.1,12.5,29.68,WNW,292,6.5,6.5,66,0.00,,---,0.00,VWS V14.01,2013-01-31 00:56:00,
2013-01-30 19:01:00,21.9,12.3,29.68,WNW,292,3.6,3.6,66,0.00,,---,0.00,VWS V14.01,2013-01-31 01:01:00,
2013-01-30 19:06:00,21.7,12.1,29.68,WNW,292,4.7,4.7,66,0.00,,---,0.00,VWS V14.01,2013-01-31 01:06:00,
2013-01-30 19:11:00,21.6,12.0,29.68,WNW,292,4.3,4.7,66,0.00,,---,0.00,VWS V14.01,2013-01-31 01:11:00,
2013-01-30 19:16:00,21.4,11.8,29.68,WNW,292,2.5,2.5,66,0.00,,---,0.00,VWS V14.01,2013-01-31 01:16:00,
2013-01-30 19:21:00,21.2,12.0,29.68,WNW,292,3.8,3.8,67,0.00,,---,0.00,VWS V14.01,2013-01-31 01:21:00,
2013-01-30 19:26:00,21.2,12.0,29.68,WNW,292,3.6,3.6,67,0.00,,---,0.00,VWS V14.01,2013-01-31 01:26:00,
2013-01-30 19:31:00,21.0,11.8,29.68,NNW,338,3.6,3.6,67,0.00,,---,0.00,VWS V14.01,2013-01-31 01:31:00,
2013-01-30 19:36:00,20.7,11.4,29.68,ENE,68,3.8,3.8,67,0.00,,---,0.00,VWS V14.01,2013-01-31 01:36:00,
2013-01-30 19:41:00,20.5,11.3,29.68,WNW,292,6.3,6.3,67,0.00,,---,0.00,VWS V14.01,2013-01-31 01:41:00,
2013-01-30 19:46:00,20.5,11.3,29.68,WNW,292,3.4,4.7,67,0.00,,---,0.00,VWS V14.01,2013-01-31 01:46:00,
2013-01-30 19:51:00,20.3,11.1,29.68,WNW,292,3.1,3.4,67,0.00,,---,0.00,VWS V14.01,2013-01-31 01:51:00,
2013-01-30 19:56:00,20.3,11.4,29.68,NNW,338,7.2,7.2,68,0.00,,---,0.00,VWS V14.01,2013-01-31 01:56:00,
2013-01-30 20:01:00,19.9,11.1,29.68,NE,45,2.2,3.6,68,0.00,,---,0.00,VWS V14.01,2013-01-31 02:01:00,
2013-01-30 20:06:00,19.8,10.9,29.68,WNW,292,2.7,3.1,68,0.00,,---,0.00,VWS V14.01,2013-01-31 02:06:00,
2013-01-30 20:11:00,19.6,10.8,29.68,WNW,292,4.0,4.0,68,0.00,,---,0.00,VWS V14.01,2013-01-31 02:11:00,
2013-01-30 20:16:00,19.4,10.9,29.68,WNW,292,2.5,2.5,69,0.00,,---,0.00,VWS V14.01,2013-01-31 02:16:00,
2013-01-30 20:21:00,19.2,10.7,29.68,WNW,292,2.5,2.5,69,0.00,,---,0.00,VWS V14.01,2013-01-31 02:21:00,
2013-01-30 20:26:00,19.0,10.6,29.68,WNW,292,4.3,4.3,69,0.00,,---,0.00,VWS V14.01,2013-01-31 02:26:00,
2013-01-30 20:31:00,18.9,10.4,29.68,SSW,202,2.0,2.7,69,0.00,,---,0.00,VWS V14.01,2013-01-31 02:31:00,
2013-01-30 20:36:00,18.7,10.2,29.68,NNW,338,3.6,3.6,69,0.00,,---,0.00,VWS V14.01,2013-01-31 02:36:00,
2013-01-30 20:42:00,18.5,10.0,29.68,NW,315,2.0,3.1,69,0.00,,---,0.00,VWS V14.01,2013-01-31 02:42:00,
2013-01-30 20:47:00,18.5,10.0,29.68,NNE,22,4.3,4.3,69,0.00,,---,0.00,VWS V14.01,2013-01-31 02:47:00,
2013-01-30 20:52:00,18.3,9.9,29.71,NW,315,2.5,3.6,69,0.00,,---,0.00,VWS V14.01,2013-01-31 02:52:00,
2013-01-30 20:57:00,18.3,9.9,29.71,NNW,338,1.3,4.3,69,0.00,,---,0.00,VWS V14.01,2013-01-31 02:57:00,
2013-01-30 21:02:00,18.1,9.7,29.71,NW,315,2.0,2.9,69,0.00,,---,0.00,VWS V14.01,2013-01-31 03:02:00,
2013-01-30 21:07:00,18.1,9.7,29.68,NNE,22,3.6,3.6,69,0.00,,---,0.00,VWS V14.01,2013-01-31 03:07:00,
2013-01-30 21:12:00,18.0,9.5,29.68,NNW,338,2.5,2.7,69,0.00,,---,0.00,VWS V14.01,2013-01-31 03:12:00,
2013-01-30 21:17:00,17.8,9.4,29.68,NNW,338,3.1,3.1,69,0.00,,---,0.00,VWS V14.01,2013-01-31 03:17:00,
2013-01-30 21:22:00,17.6,9.2,29.71,NNW,338,1.6,1.6,69,0.00,,---,0.00,VWS V14.01,2013-01-31 03:22:00,
2013-01-30 21:27:00,17.6,9.5,29.71,WNW,292,3.1,3.1,70,0.00,,---,0.00,VWS V14.01,2013-01-31 03:27:00,
2013-01-30 21:32:00,17.4,9.3,29.71,NNW,338,2.5,3.4,70,0.00,,---,0.00,VWS V14.01,2013-01-31 03:32:00,
2013-01-30 21:37:00,17.1,9.0,29.71,NW,315,2.9,2.9,70,0.00,,---,0.00,VWS V14.01,2013-01-31 03:37:00,
2013-01-30 21:42:00,17.1,9.0,29.71,NNW,338,2.5,2.7,70,0.00,,---,0.00,VWS V14.01,2013-01-31 03:42:00,
2013-01-30 21:47:00,16.9,8.8,29.71,NNW,338,2.5,2.5,70,0.00,,---,0.00,VWS V14.01,2013-01-31 03:47:00,
2013-01-30 21:52:00,16.9,8.8,29.71,NNW,338,3.6,3.6,70,0.00,,---,0.00,VWS V14.01,2013-01-31 03:52:00,
2013-01-30 21:57:00,16.9,8.8,29.71,NNW,338,3.1,3.1,70,0.00,,---,0.00,VWS V14.01,2013-01-31 03:57:00,
2013-01-30 22:02:00,16.9,8.8,29.71,WNW,292,1.6,1.6,70,0.00,,---,0.00,VWS V14.01,2013-01-31 04:02:00,
2013-01-30 22:07:00,16.7,8.6,29.71,NNW,338,4.7,4.7,70,0.00,,---,0.00,VWS V14.01,2013-01-31 04:07:00,
2013-01-30 22:12:00,16.7,8.6,29.71,WNW,292,3.4,3.4,70,0.00,,---,0.00,VWS V14.01,2013-01-31 04:12:00,
2013-01-30 22:17:00,16.5,8.5,29.71,NNW,338,4.9,4.9,70,0.00,,---,0.00,VWS V14.01,2013-01-31 04:17:00,
2013-01-30 22:22:00,16.5,8.5,29.71,WNW,292,3.6,3.6,70,0.00,,---,0.00,VWS V14.01,2013-01-31 04:22:00,
2013-01-30 22:27:00,16.5,8.5,29.71,NW,315,4.9,4.9,70,0.00,,---,0.00,VWS V14.01,2013-01-31 04:27:00,
2013-01-30 22:32:00,16.5,8.5,29.71,NW,315,4.9,4.9,70,0.00,,---,0.00,VWS V14.01,2013-01-31 04:32:00,
2013-01-30 22:37:00,16.5,8.5,29.71,WNW,292,4.9,4.9,70,0.00,,---,0.00,VWS V14.01,2013-01-31 04:37:00,
2013-01-30 22:42:00,16.5,8.5,29.71,NNW,338,2.9,2.9,70,0.00,,---,0.00,VWS V14.01,2013-01-31 04:42:00,
2013-01-30 22:47:00,16.3,8.3,29.71,NNW,338,2.9,2.9,70,0.00,,---,0.00,VWS V14.01,2013-01-31 04:47:00,
2013-01-30 22:52:00,16.2,8.1,29.71,WNW,292,5.8,5.8,70,0.00,,---,0.00,VWS V14.01,2013-01-31 04:52:00,
2013-01-30 22:57:00,16.2,8.1,29.71,NW,315,6.0,6.0,70,0.00,,---,0.00,VWS V14.01,2013-01-31 04:57:00,
2013-01-30 23:00:00,16.0,7.6,29.71,NW,315,6.0,6.0,69,0.00,,---,0.00,VWS V14.01,2013-01-31 05:00:00,
2013-01-30 23:01:00,16.0,7.6,29.71,South,180,3.6,3.6,69,0.00,,---,0.00,VWS V14.01,2013-01-31 05:01:00,
2013-01-30 23:03:00,16.0,7.6,29.71,South,180,3.6,3.6,69,0.00,,---,0.00,VWS V14.01,2013-01-31 05:03:00,
2013-01-30 23:08:00,15.8,7.8,29.71,South,180,3.6,3.6,70,0.00,,---,0.00,VWS V14.01,2013-01-31 05:08:00,
2013-01-30 23:13:00,15.8,7.8,29.71,South,180,3.6,3.6,70,0.00,,---,0.00,VWS V14.01,2013-01-31 05:13:00,
2013-01-30 23:18:00,15.6,7.6,29.71,NNW,338,2.7,2.7,70,0.00,,---,0.00,VWS V14.01,2013-01-31 05:18:00,
2013-01-30 23:23:00,15.4,7.4,29.71,NNW,338,2.7,2.7,70,0.00,,---,0.00,VWS V14.01,2013-01-31 05:23:00,
2013-01-30 23:28:00,15.4,7.1,29.71,NNW,338,2.7,2.7,69,0.00,,---,0.00,VWS V14.01,2013-01-31 05:28:00,
2013-01-30 23:33:00,15.4,7.1,29.71,WNW,292,2.0,2.0,69,0.00,,---,0.00,VWS V14.01,2013-01-31 05:33:00,
2013-01-30 23:38:00,15.3,6.9,29.71,WNW,292,2.0,2.0,69,0.00,,---,0.00,VWS V14.01,2013-01-31 05:38:00,
2013-01-30 23:43:00,15.3,6.9,29.71,WNW,292,2.0,2.0,69,0.00,,---,0.00,VWS V14.01,2013-01-31 05:43:00,
2013-01-30 23:48:00,15.3,6.9,29.71,WNW,292,2.0,2.0,69,0.00,,---,0.00,VWS V14.01,2013-01-31 05:48:00,
2013-01-30 23:53:00,15.1,6.8,29.71,WNW,292,2.0,2.0,69,0.00,,---,0.00,VWS V14.01,2013-01-31 05:53:00,
2013-01-30 23:58:00,15.1,6.8,29.71,NNW,338,3.6,3.6,69,0.00,,---,0.00,VWS V14.01,2013-01-31 05:58:00,